Regional Weather Roundup
Issued by NWS

Home | Current Version | Previous Version | Graphics & Text | Print | Product List | Glossary On
Versions: 1 2 3 4 5 6 7 8 9 10 11 12 13 14 15 16 17 18 19 20 21 22 23 24 25 26 27 28 29 30 31 32 33 34 35 36 37 38 39 40 41 42 43 44 45 46 47 48 49 50
000
ASUS43 KTOP 250859
RWRKS

WEATHER ROUNDUP FOR KANSAS
NATIONAL WEATHER SERVICE GOODLAND KS
400 AM CDT MON JUL 25 2016

NOTE:  "FAIR" INDICATES FEW OR NO CLOUDS BELOW 12,000 FEET WITH NO
SIGNIFICANT WEATHER AND/OR OBSTRUCTIONS TO VISIBILITY.

KSZ001>006-013>018-027>032-041>047-251000-
NORTHWEST KANSAS

CITY           SKY/WX    TMP DP  RH WIND       PRES   REMARKS
GOODLAND       CLOUDY    64  58  80 NE12      30.16R
HAYS           CLOUDY    68  61  77 SW15      30.11F THUNDER
HILL CITY      LGT RAIN  69  64  84 NW7       30.13R
RUSSELL        LGT RAIN  70  65  84 SW10      30.06F
$$

KSZ061>065-074>080-084>089-251000-
SOUTHWEST KANSAS

CITY           SKY/WX    TMP DP  RH WIND       PRES   REMARKS
DODGE CITY     LGT RAIN  67  65  93 E16       30.09F
ELKHART          N/A     66  64  93 NE7         N/A
GARDEN CITY    CLOUDY    67  65  93 NE12      30.11S
GREAT BEND     CLOUDY    70  61  73 NW15G23   30.10F THUNDER
LIBERAL        CLOUDY    68  63  83 E10G17    30.12F
$$

KSZ066>073-081>083-090>101-251000-
SOUTHEAST KANSAS

CITY           SKY/WX    TMP DP  RH WIND       PRES   REMARKS
CHANUTE        CLOUDY    78  70  76 CALM      29.99R
COFFEYVILLE    CLOUDY    81  74  79 CALM      29.96R
HUTCHINSON     CLOUDY    80  75  84 CALM      29.99R
NEWTON         CLOUDY    77  74  90 NE12      30.00R THUNDER
PARSONS        CLOUDY    80  75  84 N8        29.99R
WICHITA INTL   MOCLDY    82  74  76 NE5       29.96S
WICHITA JABRA  CLOUDY    77  76  96 CALM      29.97S
WINFIELD       CLOUDY    83  72  69 SE3       29.97R
$$

KSZ007>012-019>026-033>040-048>060-102>105-251000-
NORTHEAST KANSAS

CITY           SKY/WX    TMP DP  RH WIND       PRES   REMARKS
CONCORDIA      MOCLDY    70  65  84 NE3       30.06R
EMPORIA        CLOUDY    75  66  73 N7        30.02R
LAWRENCE       CLOUDY    75  69  81 N5        30.02R
MANHATTAN      TSTM      73  66  78 SE13      30.03R
OLATHE IND     CLOUDY    76  70  82 NW8       30.03R
OLATHE EXE     CLOUDY    77  70  79 N6        30.02R
SALINA         CLOUDY    74  68  81 NE9       30.01R THUNDER
TOPEKA BILLARD CLOUDY    75  67  76 NE3       30.02R
TOPEKA FORBES  CLOUDY    75  71  87 N7        30.02R
$$



USA.gov is the U.S. government's official web portal to all federal, state and local government web resources and services.